Palacios, TX

7:18 PM CST on November 17, 2017 (GMT -0600)
Palacios Municipal

Weather History for KPSX - November, 2014

Change the Weather History Date:

Monday, November 24, 2014

  Actual Average Record
Temperature  
Mean Temperature 56 °F -  
Max Temperature 66 °F 71 °F 83 °F (1967)
Min Temperature 46 °F 51 °F 29 °F (1970)
Degree Days  
Heating Degree Days 9    
Growing Degree Days 6 (Base 50)    
Moisture  
Dew Point 43 °F    
Average Humidity 59    
Maximum Humidity 77    
Minimum Humidity 33    
Precipitation  
Precipitation 0.00 in - - ()
Sea Level Pressure  
Sea Level Pressure 29.99 in    
Wind  
Wind Speed 15 mph (North)    
Max Wind Speed 24 mph    
Max Gust Speed 30 mph    
Visibility 10 miles    
Events      
Averages and records for this station are not official NWS values.
T = Trace of Precipitation, MM = Missing Value Source: NWS Daily Summary

Daily Weather History Graph

Daily Weather History Graph

Search for Another Location

Airport or City:

Trip Planner

Search our weather history database for the weather conditions in past years. The results will help you decide how hot, cold, wet, or windy it might be!

Date:

Astronomy

Nov. 24, 2014 Rise Set
Actual Time 6:55 AM CST 5:28 PM CST
Civil Twilight 6:29 AM CST 5:53 PM CST
Nautical Twilight 6:00 AM CST 6:22 PM CST
Astronomical Twilight 5:32 AM CST 6:50 PM CST
Moon 8:49 AM CST (11/24) 7:49 PM CST (11/24)
Length of Visible Light 11h 23m
Length of Day
10h 33m
Waxing Crescent, 6% of the Moon is Illuminated
Nov 24
Waxing Crescent
Nov 29
First Quarter
Dec 6
Full
Dec 14
Last Quarter
Dec 21
New

Hourly Weather History & Observations

Time (CST) Temp. Dew Point Humidity Pressure Visibility Wind Dir Wind Speed Gust Speed Precip Events Conditions
12:50 AM 66.2 °F 57.2 °F 73% 29.77 in 10.0 mi WNW 13.8 mph - N/A   Clear
12:53 AM 66.0 °F 57.9 °F 75% 29.78 in 10.0 mi WNW 11.5 mph - N/A   Clear
1:53 AM 62.1 °F 50.0 °F 65% 29.82 in 10.0 mi North 19.6 mph 25.3 mph N/A   Clear
2:53 AM 57.9 °F 48.9 °F 72% 29.83 in 10.0 mi NNW 16.1 mph - N/A   Clear
3:53 AM 55.9 °F 45.0 °F 67% 29.85 in 10.0 mi North 17.3 mph - N/A   Clear
4:53 AM 54.0 °F 44.1 °F 69% 29.88 in 10.0 mi North 16.1 mph - N/A   Clear
5:53 AM 51.8 °F 42.8 °F 71% 29.92 in 10.0 mi North 15.0 mph 24.2 mph N/A   Clear
6:53 AM 51.1 °F 41.0 °F 68% 29.96 in 10.0 mi North 16.1 mph - N/A   Clear
7:53 AM 52.0 °F 41.0 °F 66% 29.99 in 10.0 mi North 18.4 mph - N/A   Clear
8:53 AM 55.0 °F 41.0 °F 59% 30.03 in 10.0 mi North 23.0 mph 29.9 mph N/A   Clear
9:53 AM 57.9 °F 39.9 °F 51% 30.05 in 10.0 mi North 24.2 mph 29.9 mph N/A   Clear
10:53 AM 61.0 °F 39.0 °F 44% 30.06 in 10.0 mi NNE 21.9 mph 29.9 mph N/A   Clear
11:53 AM 63.0 °F 39.0 °F 41% 30.06 in 10.0 mi North 18.4 mph - N/A   Clear
12:53 PM 64.0 °F 39.0 °F 40% 30.03 in 10.0 mi North 17.3 mph - N/A   Clear
1:53 PM 66.2 °F 37.4 °F 35% 30.02 in 10.0 mi North 17.3 mph - N/A   Clear
2:53 PM 66.0 °F 36.0 °F 33% 30.01 in 10.0 mi North 18.4 mph - N/A   Clear
3:53 PM 64.9 °F 36.0 °F 34% 30.01 in 10.0 mi North 17.3 mph - N/A   Clear
4:53 PM 62.1 °F 39.0 °F 43% 30.03 in 10.0 mi North 8.1 mph - N/A   Overcast
5:53 PM 59.0 °F 41.0 °F 51% 30.05 in 10.0 mi North 6.9 mph - N/A   Overcast
6:53 PM 57.0 °F 43.0 °F 59% 30.08 in 10.0 mi North 6.9 mph - N/A   Overcast
7:53 PM 53.1 °F 43.0 °F 69% 30.10 in 10.0 mi North 6.9 mph - N/A   Mostly Cloudy
9:53 PM 48.0 °F 41.0 °F 77% 30.14 in 10.0 mi NNW 6.9 mph - N/A   Clear
10:53 PM 46.9 °F 39.9 °F 77% 30.15 in 10.0 mi North 6.9 mph - N/A   Clear
11:53 PM 46.9 °F 39.9 °F 77% 30.15 in 10.0 mi North 8.1 mph - N/A   Clear